St. Johns, AZ

6:44 AM MST on April 19, 2018 (GMT -0700)
Saint Johns Industrial

Weather History for KSJN - November, 2013

Change the Weather History Date:

Saturday, November 9, 2013

  Actual Average (KLSB) Record (KLSB)
Temperature  
Mean Temperature 43 °F -  
Max Temperature 61 °F 69 °F 71 °F (2013)
Min Temperature 25 °F 32 °F 33 °F (2013)
Degree Days  
Heating Degree Days 22    
Moisture  
Dew Point 25 °F    
Average Humidity 47    
Maximum Humidity 81    
Minimum Humidity 13    
Precipitation  
Precipitation 0.00 in - - ()
Sea Level Pressure  
Sea Level Pressure 30.13 in    
Wind  
Wind Speed 3 mph (SE)    
Max Wind Speed 9 mph    
Max Gust Speed -    
Visibility 10 miles    
Events      
Averages and records for this station are not official NWS values.
T = Trace of Precipitation, MM = Missing Value Source: NWS Daily Summary

Daily Weather History Graph

Daily Weather History Graph

Search for Another Location

Airport or City:

Astronomy

Nov. 09, 2013 Rise Set
Actual Time 6:45 AM MST 5:16 PM MST
Civil Twilight 6:19 AM MST 5:43 PM MST
Nautical Twilight 5:49 AM MST 6:13 PM MST
Astronomical Twilight 5:19 AM MST 6:42 PM MST
Moon 12:27 PM MST (11/9) 11:46 PM MST (11/9)
Length of Visible Light 11h 24m
Length of Day
10h 31m
Waxing Crescent, 45% of the Moon is Illuminated
Nov 9
Waxing Crescent
Nov 9
First Quarter
Nov 17
Full
Nov 25
Last Quarter
Dec 2
New

Hourly Weather History & Observations

Time (MST) Temp. Windchill Dew Point Humidity Pressure Visibility Wind Dir Wind Speed Gust Speed Precip Events Conditions
12:54 AM 39.9 °F 35.8 °F 26.1 °F 58% 30.05 in 10.0 mi South 5.8 mph - N/A   Clear
1:54 AM 39.0 °F 35.7 °F 26.1 °F 60% 30.05 in 10.0 mi SSE 4.6 mph - N/A   Clear
2:54 AM 34.0 °F - 25.0 °F 70% 30.07 in 10.0 mi Calm Calm - N/A   Clear
3:54 AM 34.0 °F 29.8 °F 26.1 °F 73% 30.08 in 10.0 mi South 4.6 mph - N/A   Clear
4:54 AM 30.9 °F - 24.1 °F 76% 30.11 in 10.0 mi Calm Calm - N/A   Clear
5:54 AM 28.0 °F - 23.0 °F 81% 30.17 in 10.0 mi Calm Calm - N/A   Clear
6:54 AM 30.0 °F 25.2 °F 24.1 °F 79% 30.20 in 10.0 mi South 4.6 mph - N/A   Clear
7:54 AM 34.0 °F 28.8 °F 26.1 °F 73% 30.21 in 10.0 mi NNE 5.8 mph - N/A   Clear
8:54 AM 42.1 °F - 28.9 °F 60% 30.19 in 10.0 mi Calm Calm - N/A   Clear
9:54 AM 50.0 °F - 28.9 °F 44% 30.17 in 10.0 mi Calm Calm - N/A   Clear
10:54 AM 57.0 °F - 28.0 °F 33% 30.14 in 10.0 mi Calm Calm - N/A   Clear
11:54 AM 61.0 °F - 28.0 °F 29% 30.11 in 10.0 mi Calm Calm - N/A   Clear
12:54 PM 63.0 °F - 27.0 °F 26% 30.07 in 10.0 mi North 3.5 mph - N/A   Clear
1:54 PM 64.0 °F - 25.0 °F 23% 30.06 in 10.0 mi Variable 3.5 mph - N/A   Clear
2:54 PM 66.0 °F - 25.0 °F 21% 30.07 in 10.0 mi NNE 5.8 mph - N/A   Clear
3:54 PM 66.9 °F - 21.9 °F 18% 30.06 in 10.0 mi NNW 5.8 mph - N/A   Clear
4:54 PM 64.0 °F - 19.9 °F 18% 30.08 in 10.0 mi North 3.5 mph - N/A   Clear
5:54 PM 55.0 °F - 21.9 °F 28% 30.14 in 10.0 mi Calm Calm - N/A   Clear
6:54 PM 46.9 °F - 26.1 °F 44% 30.18 in 10.0 mi Calm Calm - N/A   Clear
7:54 PM 45.0 °F 41.8 °F 25.0 °F 46% 30.18 in 10.0 mi South 5.8 mph - N/A   Clear
8:54 PM 45.0 °F 41.8 °F 26.1 °F 48% 30.17 in 10.0 mi SE 5.8 mph - N/A   Clear
9:54 PM 43.0 °F 40.3 °F 26.1 °F 51% 30.16 in 10.0 mi SSE 4.6 mph - N/A   Clear
10:54 PM 43.0 °F 39.5 °F 26.1 °F 51% 30.14 in 10.0 mi South 5.8 mph - N/A   Clear
11:54 PM 42.1 °F 38.4 °F 26.1 °F 53% 30.13 in 10.0 mi South 5.8 mph - N/A   Clear